This is the latest recevied weather packets stored in our database for station/object K5NWZ. If no packets are shown the sender has not sent any weather packets the latest 10 day(s).
| Time | Temp. | Humidity | Pressure | Rain* | Wind** | Luminosity | Snow |
|---|---|---|---|---|---|---|---|
| 1777830620 | 23.33° C | 19% | 1023.3 hPa | 0 mm | - | 388 W/m² | - |
| 1777830318 | 22.78° C | 20% | 1023 hPa | 0 mm | - | 370 W/m² | - |
| 1777830014 | 21.67° C | 20% | 1023.2 hPa | 0 mm | - | 505 W/m² | - |
| 1777829709 | 21.67° C | 21% | 1023.2 hPa | 0 mm | - | 359 W/m² | - |
| 1777829406 | 21.67° C | 20% | 1023.4 hPa | 0 mm | - | 485 W/m² | - |
| 1777829103 | 21.67° C | 20% | 1023.3 hPa | 0 mm | - | 536 W/m² | - |
| 1777828800 | 22.78° C | 21% | 1023.7 hPa | 0 mm | - | 374 W/m² | - |
| 1777828496 | 21.67° C | 20% | 1023.7 hPa | 0 mm | - | 530 W/m² | - |
| 1777828194 | 22.22° C | 20% | 1023.7 hPa | 0 mm | - | 498 W/m² | - |
| 1777827890 | 21.67° C | 22% | 1023.7 hPa | 0 mm | - | 610 W/m² | - |
| 1777827582 | 21.67° C | 21% | 1023.9 hPa | 0 mm | - | 491 W/m² | - |
| 1777827280 | 21.11° C | 22% | 1024 hPa | 0 mm | - | 658 W/m² | - |
| 1777826976 | 21.11° C | 23% | 1023.9 hPa | 0 mm | - | 624 W/m² | - |
| 1777826673 | 21.11° C | 23% | 1024.2 hPa | 0 mm | - | 695 W/m² | - |
| 1777826370 | 20.56° C | 23% | 1024.2 hPa | 0 mm | - | 681 W/m² | - |
| 1777826067 | 20.56° C | 22% | 1024.1 hPa | 0 mm | - | 677 W/m² | - |
| 1777825764 | 20.56° C | 23% | 1024.1 hPa | 0 mm | - | 697 W/m² | - |
| 1777825462 | 21.11° C | 23% | 1024.2 hPa | 0 mm | - | 670 W/m² | - |
| 1777825158 | 21.11° C | 24% | 1024.4 hPa | 0 mm | - | 671 W/m² | - |
| 1777824855 | 21.11° C | 23% | 1024.4 hPa | 0 mm | - | 666 W/m² | - |
| 1777824551 | 19.44° C | 25% | 1024.1 hPa | 0 mm | - | 649 W/m² | - |
| 1777824248 | 19.44° C | 24% | 1024.2 hPa | 0 mm | - | 629 W/m² | - |
| 1777823944 | 19.44° C | 26% | 1024.5 hPa | 0 mm | - | 583 W/m² | - |
| 1777823641 | 19.44° C | 24% | 1024.4 hPa | 0 mm | - | 584 W/m² | - |
| 1777823338 | 19.44° C | 24% | 1024.5 hPa | 0 mm | - | 549 W/m² | - |
* Rain latest hour (hover to see other rain measurements)
** Current wind speed in m/s (hover to see current wind gust speed)